TimeEST,TemperatureF,Dew PointF,Humidity,Sea Level PressureIn,VisibilityMPH,Wind Direction,Wind SpeedMPH,Gust SpeedMPH,PrecipitationIn,Events,Conditions,WindDirDegrees,DateUTC
12:03 AM,17.6,6.8,63,30.14,10.0,NW,8.1,-,N/A,,Clear,320,2009-01-01 05:03:00
12:23 AM,17.6,6.8,63,30.14,10.0,NW,5.8,19.6,N/A,,Clear,310,2009-01-01 05:23:00
12:43 AM,17.6,6.8,63,30.14,10.0,WNW,8.1,-,N/A,,Clear,300,2009-01-01 05:43:00
1:03 AM,17.6,6.8,63,30.15,10.0,West,3.5,-,N/A,,Clear,280,2009-01-01 06:03:00
1:23 AM,17.6,8.6,68,30.15,10.0,West,6.9,-,N/A,,Clear,280,2009-01-01 06:23:00
1:43 AM,17.6,6.8,63,30.15,10.0,WNW,6.9,-,N/A,,Clear,300,2009-01-01 06:43:00
2:04 AM,17.6,8.6,68,30.16,10.0,West,11.5,-,N/A,,Clear,270,2009-01-01 07:04:00
2:23 AM,17.6,8.6,68,30.16,10.0,West,11.5,-,N/A,,Clear,280,2009-01-01 07:23:00
2:43 AM,17.6,8.6,68,30.17,10.0,WNW,6.9,-,N/A,,Clear,290,2009-01-01 07:43:00
3:03 AM,17.6,6.8,63,30.17,10.0,WNW,6.9,-,N/A,,Clear,290,2009-01-01 08:03:00
3:23 AM,17.6,8.6,68,30.18,10.0,WNW,9.2,-,N/A,,Clear,300,2009-01-01 08:23:00
3:43 AM,17.6,6.8,63,30.18,10.0,NW,6.9,-,N/A,,Clear,310,2009-01-01 08:43:00
4:03 AM,17.6,6.8,63,30.18,10.0,WNW,12.7,-,N/A,,Clear,300,2009-01-01 09:03:00
4:23 AM,17.6,6.8,63,30.18,10.0,NNW,4.6,-,N/A,,Clear,330,2009-01-01 09:23:00
4:44 AM,15.8,5.0,62,30.18,10.0,Calm,Calm,-,N/A,,Clear,0,2009-01-01 09:44:00
5:03 AM,15.8,5.0,62,30.17,10.0,Calm,Calm,-,N/A,,Clear,0,2009-01-01 10:03:00
5:23 AM,15.8,5.0,62,30.17,10.0,Calm,Calm,-,N/A,,Clear,0,2009-01-01 10:23:00
5:44 AM,15.8,3.2,58,30.17,10.0,Calm,Calm,-,N/A,,Clear,0,2009-01-01 10:44:00
6:04 AM,15.8,5.0,62,30.18,10.0,Calm,Calm,-,N/A,,Clear,0,2009-01-01 11:04:00
6:24 AM,15.8,6.8,68,30.18,10.0,Calm,Calm,-,N/A,,Clear,0,2009-01-01 11:24:00
7:03 AM,15.8,10.4,79,30.20,10.0,North,3.5,-,N/A,,Clear,10,2009-01-01 12:03:00
7:24 AM,15.8,10.4,79,30.20,10.0,NW,5.8,-,N/A,,Clear,320,2009-01-01 12:24:00
7:44 AM,12.2,8.6,85,30.20,10.0,North,5.8,-,N/A,,Clear,10,2009-01-01 12:44:00
8:03 AM,15.8,8.6,73,30.21,10.0,NNW,3.5,-,N/A,,Clear,330,2009-01-01 13:03:00
8:23 AM,15.8,8.6,73,30.22,10.0,Calm,Calm,-,N/A,,Clear,0,2009-01-01 13:23:00
8:43 AM,15.8,10.4,79,30.21,10.0,Calm,Calm,-,N/A,,Clear,0,2009-01-01 13:43:00
9:03 AM,17.6,10.4,73,30.22,10.0,Calm,Calm,-,N/A,,Clear,0,2009-01-01 14:03:00
9:23 AM,19.4,10.4,68,30.22,10.0,Calm,Calm,-,N/A,,Clear,0,2009-01-01 14:23:00
9:43 AM,19.4,10.4,68,30.22,10.0,Calm,Calm,-,N/A,,Clear,0,2009-01-01 14:43:00
10:03 AM,21.2,8.6,58,30.23,10.0,Calm,Calm,-,N/A,,Clear,0,2009-01-01 15:03:00
10:24 AM,24.8,8.6,50,30.23,10.0,Calm,Calm,-,N/A,,Clear,0,2009-01-01 15:24:00
10:43 AM,30.2,10.4,44,30.23,10.0,Calm,Calm,-,N/A,,Clear,0,2009-01-01 15:43:00
11:03 AM,30.2,6.8,37,30.23,10.0,Calm,Calm,-,N/A,,Clear,0,2009-01-01 16:03:00
11:23 AM,30.2,1.4,29,30.22,10.0,Calm,Calm,-,N/A,,Clear,0,2009-01-01 16:23:00
11:43 AM,33.8,-0.4,23,30.22,10.0,ESE,3.5,-,N/A,,Clear,120,2009-01-01 16:43:00
12:04 PM,35.6,-0.4,22,30.21,10.0,South,5.8,-,N/A,,Clear,180,2009-01-01 17:04:00
12:23 PM,35.6,-2.2,20,30.20,10.0,SE,5.8,-,N/A,,Clear,140,2009-01-01 17:23:00
12:43 PM,35.6,-0.4,22,30.19,10.0,SSE,8.1,-,N/A,,Clear,150,2009-01-01 17:43:00
1:03 PM,35.6,-0.4,22,30.19,10.0,SSE,5.8,-,N/A,,Clear,150,2009-01-01 18:03:00
1:23 PM,35.6,-2.2,20,30.18,10.0,SSE,6.9,-,N/A,,Clear,150,2009-01-01 18:23:00
1:43 PM,35.6,-4.0,18,30.17,10.0,SE,9.2,-,N/A,,Clear,140,2009-01-01 18:43:00
2:03 PM,35.6,-2.2,20,30.16,10.0,SSE,8.1,-,N/A,,Clear,160,2009-01-01 19:03:00
2:24 PM,35.6,-2.2,20,30.15,10.0,SSE,5.8,-,N/A,,Clear,150,2009-01-01 19:24:00
2:43 PM,35.6,-2.2,20,30.15,10.0,SSE,9.2,-,N/A,,Clear,150,2009-01-01 19:43:00
3:03 PM,35.6,-0.4,22,30.15,10.0,SSE,6.9,-,N/A,,Clear,150,2009-01-01 20:03:00
3:23 PM,35.6,-0.4,22,30.15,10.0,South,5.8,-,N/A,,Clear,180,2009-01-01 20:23:00
3:43 PM,33.8,-0.4,23,30.15,10.0,SSE,6.9,-,N/A,,Clear,150,2009-01-01 20:43:00
4:03 PM,33.8,-0.4,23,30.14,10.0,SE,5.8,-,N/A,,Clear,140,2009-01-01 21:03:00
4:23 PM,33.8,-0.4,23,30.14,10.0,SSE,6.9,-,N/A,,Clear,150,2009-01-01 21:23:00
4:44 PM,32.0,-0.4,25,30.14,10.0,SSE,4.6,-,N/A,,Clear,160,2009-01-01 21:44:00
5:03 PM,30.2,1.4,29,30.14,10.0,SSE,5.8,-,N/A,,Clear,160,2009-01-01 22:03:00
5:23 PM,30.2,1.4,29,30.13,10.0,SSE,5.8,-,N/A,,Clear,160,2009-01-01 22:23:00
5:46 PM,28.4,3.2,34,30.13,10.0,SSE,4.6,-,N/A,,Clear,160,2009-01-01 22:46:00
6:03 PM,28.4,3.2,34,30.13,10.0,South,3.5,-,N/A,,Clear,170,2009-01-01 23:03:00
6:24 PM,28.4,1.4,31,30.14,10.0,South,4.6,-,N/A,,Clear,170,2009-01-01 23:24:00
7:04 PM,26.6,3.2,37,30.13,10.0,South,5.8,-,N/A,,Clear,170,2009-01-02 00:04:00
7:24 PM,26.6,3.2,37,30.14,10.0,South,3.5,-,N/A,,Clear,180,2009-01-02 00:24:00
7:43 PM,26.6,3.2,37,30.14,10.0,South,3.5,-,N/A,,Clear,180,2009-01-02 00:43:00
8:04 PM,24.8,3.2,40,30.13,10.0,South,3.5,-,N/A,,Clear,170,2009-01-02 01:04:00
8:23 PM,24.8,3.2,40,30.12,10.0,South,3.5,-,N/A,,Clear,170,2009-01-02 01:23:00
8:44 PM,24.8,5.0,43,30.11,10.0,SSE,4.6,-,N/A,,Clear,160,2009-01-02 01:44:00
9:03 PM,24.8,5.0,43,30.11,10.0,SSE,5.8,-,N/A,,Clear,160,2009-01-02 02:03:00
9:24 PM,24.8,3.2,40,30.10,10.0,South,5.8,-,N/A,,Clear,180,2009-01-02 02:24:00
9:44 PM,24.8,3.2,40,30.10,10.0,SSE,5.8,-,N/A,,Clear,160,2009-01-02 02:44:00
10:04 PM,24.8,3.2,40,30.09,10.0,SSE,4.6,-,N/A,,Clear,160,2009-01-02 03:04:00
10:23 PM,24.8,5.0,43,30.09,10.0,SE,5.8,-,N/A,,Clear,140,2009-01-02 03:23:00
11:03 PM,24.8,5.0,43,30.07,10.0,SE,5.8,-,N/A,,Clear,140,2009-01-02 04:03:00
11:25 PM,24.8,5.0,43,30.06,10.0,SE,4.6,-,N/A,,Clear,140,2009-01-02 04:25:00
11:43 PM,24.8,5.0,43,30.06,10.0,SE,3.5,-,N/A,,Scattered Clouds,140,2009-01-02 04:43:00